[[{"header":{"parameterUnit":"m.s-1","parameterCategory":1,"la1":30.2991,"la2":30.254,"lo1":-89.0895,"lo2":-89.0444,"dy":0.0017,"dx":0.0017,"nx":28,"ny":28,"refTime":"2025-09-11T21:00:00:Z","depth":0,"parameterNumber":2,"parameterNumberName":"U-component_of_WINDS"},"data":[0,0,0,0,0,0,0,0,0,0,0,0,0,0,0,0,0,0,0,0,0,0,0,0,0,0,0,0,0,0,0,0,0,0,0,0,0,0,0,0,0,0,0,0,0,0,0,0,0,0,0,0,0,0,0,0,0,0,1.2876,1.2877,0,1.2941,1.2941,1.2942,1.2913,1.2912,1.291,1.2909,1.2974,1.2977,1.2981,0,0,0,0,0,0,0,0,0,0,0,0,0,1.2727,1.273,1.2876,1.2877,1.2878,1.294,1.2941,1.2942,1.2914,1.2912,1.291,1.2908,1.2973,1.2977,1.2981,0,0,0,0,0,0,0,0,0,0,0,0,0,1.2792,1.2731,1.2876,1.2871,1.2871,1.294,1.2941,1.2942,1.2914,1.2912,1.2909,1.2907,1.2972,1.2977,1.2981,1.3059,0,0,1.2996,1.2998,0,0,0,0,0,0,0,0,1.2788,1.2797,1.2871,1.2871,1.2872,1.2916,1.2913,1.2981,1.2915,1.2898,1.2909,1.2906,1.2957,1.2963,1.298,1.3062,1.3065,1.2997,1.2999,1.3002,1.3003,0,0,0,0,0,0,0,1.2784,1.2794,1.2901,1.2872,1.2872,1.2865,1.2872,1.2926,1.294,1.2899,1.2897,1.2905,1.2957,1.2976,1.2981,1.3066,1.2996,1.3001,1.3004,1.3006,1.3214,1.3216,0,0,0,0,0,0,1.2779,1.2791,1.2899,1.2903,1.2823,1.287,1.2877,1.2905,1.2939,1.2942,1.2907,1.2904,1.2968,1.2976,1.2984,1.3076,1.3002,1.3006,1.3009,1.3211,1.3214,1.3217,0,0,0,0,0,0,1.2776,1.2789,1.2897,1.2847,1.286,1.2875,1.2906,1.2907,1.2926,1.2945,1.2948,1.2924,1.2967,1.2977,1.304,1.3078,1.3008,1.3013,1.3208,1.3212,1.3216,1.3261,0,0,0,0,0,0,1.2772,1.2788,1.2818,1.2847,1.2862,1.2953,1.2908,1.291,1.2934,1.293,1.2962,1.2965,1.2966,1.3033,1.3045,1.3083,1.3016,1.3205,1.321,1.3214,1.3257,1.3266,1.3275,0,0,0,0,0,1.2767,1.2828,1.282,1.2833,1.29,1.2955,1.2963,1.2964,1.2938,1.2967,1.298,1.2964,1.3072,1.304,1.3053,1.3093,1.3202,1.3208,1.3214,1.3252,1.3264,1.3275,0,0,0,0,0,0,1.2802,1.2832,1.2823,1.2896,1.2923,1.295,1.2987,1.2977,1.3012,1.3006,1.3005,1.3013,1.3078,1.3092,1.3056,1.317,1.3133,1.3142,1.3158,1.3169,1.3178,1.3173,1.302,0,0,0,0,0,1.2819,1.2861,1.2885,1.2947,1.2961,1.2972,1.2996,1.2994,1.3022,1.3033,1.3051,1.3078,1.3118,1.3145,1.3183,1.3259,1.3265,1.3293,1.3302,1.331,1.3317,1.3357,1.3369,1.3237,1.3236,1.3236,0,0,1.2853,1.2875,1.2901,1.2955,1.2975,1.3019,1.2982,1.303,1.3061,1.3041,1.3101,1.3115,1.3146,1.3216,1.3247,1.3229,1.3355,1.3317,1.3323,1.3326,1.3364,1.3377,1.3388,1.3241,1.324,1.3239,0,0,1.2937,1.2958,1.3012,1.3034,1.3066,1.3073,1.3086,1.3115,1.3123,1.3184,1.3169,1.3207,1.3277,1.3299,1.332,1.3413,1.3399,1.3426,1.3472,1.3512,1.3522,1.3531,1.3564,1.3575,1.3433,1.3433,1.3433,0,1.2975,1.304,1.3041,1.3089,1.3113,1.3097,1.315,1.3172,1.3215,1.3231,1.3211,1.3298,1.3317,1.3392,1.3414,1.3432,1.3446,1.3421,1.3521,1.353,1.3539,1.3569,1.3581,1.3436,1.3436,1.3435,1.3435,0,1.3085,1.3131,1.317,1.3212,1.324,1.3291,1.3299,1.3328,1.3324,1.3333,1.3395,1.3418,1.346,1.3478,1.3475,1.3552,1.354,1.3521,1.3483,1.3554,1.3583,1.3595,1.344,1.3439,1.3438,1.3437,0,0,1.3192,1.3234,1.3248,1.3267,1.3302,1.3337,1.3387,1.3429,1.3453,1.3484,1.3525,1.3585,1.3567,1.359,1.3589,1.3624,1.3695,1.36,1.3601,1.3616,1.3781,1.3794,1.3807,1.3687,1.3689,1.3691,1.3777,0,1.3277,1.3366,1.3368,1.3448,1.349,1.3475,1.3519,1.3545,1.3555,1.3592,1.3603,1.3645,1.3619,1.3633,1.3667,1.3679,1.3728,1.3673,1.3724,1.3726,1.3715,1.3822,1.3837,1.3917,1.3789,1.3791,1.3792,0,1.3388,1.3423,1.3508,1.3536,1.3554,1.3593,1.3631,1.3667,1.3696,1.3701,1.3727,1.3721,1.3772,1.3735,1.3805,1.3767,1.3789,1.3798,1.3801,1.3805,1.3762,1.3827,1.3943,1.3955,1.381,1.3809,1.3807,0,1.3456,1.3524,1.3583,1.36,1.3635,1.3663,1.3679,1.3705,1.373,1.3764,1.378,1.3819,1.384,1.387,1.3875,1.3848,1.3945,1.3908,1.3949,1.3949,1.3969,1.3967,1.4088,1.3986,1.3986,1.3985,1.3985,0,1.355,1.3602,1.3613,1.365,1.3708,1.371,1.3767,1.3781,1.3805,1.3843,1.3834,1.387,1.3875,1.3912,1.3916,1.3973,1.3983,1.3988,1.3988,1.3988,1.3987,1.4,1.3994,1.3989,1.3988,1.3987,1.3987,0,1.3634,1.3644,1.3708,1.3736,1.3745,1.3786,1.381,1.3845,1.3854,1.3903,1.3915,1.393,1.3973,1.3981,1.4033,1.4035,1.4102,1.4098,1.4093,1.4091,1.4132,1.4127,1.4264,1.4282,1.4169,1.417,1.4171,0,1.3692,1.3732,1.3765,1.3791,1.3808,1.3849,1.3874,1.3878,1.3905,1.3942,1.3972,1.4014,1.4048,1.4119,1.4134,1.4173,1.4168,1.4214,1.4174,1.4172,1.4167,1.4164,1.4167,1.4221,1.4222,1.4223,1.4224,0,1.3795,1.3798,1.3835,1.3874,1.3905,1.3936,1.3965,1.3986,1.3994,1.4025,1.4069,1.4096,1.4149,1.4191,1.423,1.4246,1.4236,1.4236,1.4248,1.4247,1.4241,1.4243,1.4111,1.4233,1.4232,1.4231,1.4231,1.423,1.3866,1.3901,1.3929,1.3971,1.3994,1.4022,1.4055,1.4069,1.4107,1.415,1.415,1.4199,1.4227,1.4279,1.4298,1.4336,1.4321,1.4338,1.4342,1.4345,1.4348,1.4237,1.4343,1.4343,1.4342,1.4342,1.4342,0,1.3966,1.3984,1.4023,1.4064,1.4097,1.4086,1.4118,1.4146,1.4189,1.4216,1.425,1.4302,1.4343,1.4362,1.4402,1.4429,1.4425,1.4439,1.4436,1.444,1.436,1.4345,1.4441,1.4441,1.4441,1.4441,1.4441,1.4441,1.4022,1.4079,1.4086,1.4155,1.4172,1.422,1.4239,1.4264,1.4286,1.4344,1.4378,1.439,1.4414,1.4457,1.4494,1.4498,1.4513,1.4529,1.4531,1.4455,1.4445,1.4436,1.4422,1.4532,1.4532,1.4607,1.4608,1.4608]},{"header":{"parameterUnit":"m.s-1","parameterCategory":1,"la1":30.2991,"la2":30.254,"lo1":-89.0895,"lo2":-89.0444,"dy":0.0017,"dx":0.0017,"nx":28,"ny":28,"refTime":"2025-09-11T21:00:00:Z","depth":0,"parameterNumber":3,"parameterNumberName":"V-component_of_WINDS"},"data":[0,0,0,0,0,0,0,0,0,0,0,0,0,0,0,0,0,0,0,0,0,0,0,0,0,0,0,0,0,0,0,0,0,0,0,0,0,0,0,0,0,0,0,0,0,0,0,0,0,0,0,0,0,0,0,0,0,0,0.4327,0.4326,0,0.4201,0.4199,0.4198,0.4095,0.4094,0.4093,0.4092,0.3962,0.3959,0.3957,0,0,0,0,0,0,0,0,0,0,0,0,0,0.4479,0.4476,0.4327,0.4326,0.4324,0.4201,0.4199,0.4197,0.4096,0.4094,0.4093,0.4092,0.3963,0.396,0.3957,0,0,0,0,0,0,0,0,0,0,0,0,0,0.4389,0.4476,0.4328,0.4258,0.4251,0.4201,0.4199,0.4197,0.4096,0.4094,0.4093,0.4091,0.3964,0.396,0.3956,0.3965,0,0,0.3945,0.3943,0,0,0,0,0,0,0,0,0.4394,0.4383,0.427,0.4263,0.4255,0.4162,0.4205,0.4119,0.4096,0.4155,0.4092,0.409,0.403,0.402,0.4,0.3959,0.3953,0.3945,0.3942,0.3941,0.394,0,0,0,0,0,0,0,0.44,0.4388,0.4277,0.4269,0.4259,0.4233,0.4219,0.4188,0.4103,0.4149,0.4142,0.4128,0.4025,0.4004,0.3996,0.3951,0.3945,0.3941,0.3939,0.3938,0.3908,0.3909,0,0,0,0,0,0,0.4417,0.4394,0.4281,0.4273,0.4322,0.4232,0.4215,0.4193,0.4103,0.4087,0.413,0.4124,0.4011,0.4001,0.3991,0.3994,0.3941,0.3937,0.3935,0.3907,0.3908,0.391,0,0,0,0,0,0,0.4421,0.4408,0.4286,0.4331,0.4314,0.4231,0.4207,0.4192,0.417,0.4088,0.4072,0.4124,0.4009,0.3997,0.3972,0.3988,0.3935,0.3932,0.3905,0.3907,0.3909,0.4,0,0,0,0,0,0,0.4426,0.441,0.4413,0.4332,0.4312,0.427,0.4208,0.419,0.4164,0.4156,0.4078,0.4064,0.4007,0.3978,0.3968,0.3982,0.3929,0.3903,0.3906,0.3908,0.3995,0.4005,0.4013,0,0,0,0,0,0.4432,0.4444,0.4414,0.4401,0.4314,0.4271,0.4259,0.4194,0.4166,0.4168,0.4114,0.4066,0.3988,0.3976,0.3964,0.3977,0.3902,0.3905,0.3908,0.3991,0.4003,0.4013,0,0,0,0,0,0,0.4529,0.4432,0.4398,0.4384,0.4337,0.4254,0.4254,0.4209,0.4168,0.4162,0.4083,0.4066,0.4049,0.4011,0.3999,0.3979,0.3938,0.3939,0.4005,0.4016,0.4025,0.4034,0.3926,0,0,0,0,0,0.4549,0.4523,0.4439,0.4435,0.4413,0.4338,0.4317,0.4271,0.4218,0.4197,0.4142,0.4092,0.4056,0.4034,0.3996,0.3989,0.397,0.3992,0.4001,0.4009,0.4011,0.4002,0.401,0.3921,0.3921,0.3921,0,0,0.459,0.4534,0.4522,0.4454,0.4411,0.4385,0.4322,0.4297,0.4276,0.4193,0.4166,0.4124,0.4063,0.4047,0.4037,0.4014,0.4031,0.4013,0.402,0.4017,0.4006,0.4015,0.4022,0.3923,0.3922,0.3922,0,0,0.4651,0.4606,0.4597,0.4556,0.4492,0.4442,0.444,0.4363,0.4332,0.4304,0.4241,0.4215,0.4155,0.4113,0.4084,0.4128,0.4082,0.4118,0.4166,0.4158,0.4165,0.4171,0.4185,0.4192,0.412,0.4121,0.4121,0,0.4709,0.4667,0.4598,0.4577,0.4548,0.4472,0.4462,0.4425,0.4352,0.4334,0.4309,0.4231,0.4185,0.4157,0.4168,0.4148,0.4142,0.4126,0.417,0.4175,0.418,0.4192,0.4198,0.4125,0.4125,0.4124,0.4124,0,0.4742,0.4714,0.4714,0.4646,0.4617,0.4602,0.4529,0.4508,0.4465,0.4417,0.4388,0.433,0.4278,0.4268,0.4226,0.4234,0.4222,0.4185,0.4142,0.4194,0.4205,0.4209,0.4132,0.413,0.4129,0.4128,0,0,0.486,0.4753,0.4755,0.4722,0.4646,0.4622,0.4603,0.4552,0.4535,0.4488,0.4468,0.4419,0.4384,0.4351,0.4303,0.4297,0.4334,0.426,0.4258,0.4275,0.4337,0.4365,0.4372,0.4303,0.4303,0.4304,0.4342,0,0.4908,0.4868,0.4805,0.4786,0.4758,0.4686,0.4668,0.4619,0.4574,0.4543,0.4492,0.4458,0.4415,0.4395,0.4386,0.4332,0.4345,0.4328,0.4283,0.4282,0.4299,0.4377,0.4406,0.4445,0.4346,0.4346,0.4347,0,0.4958,0.4914,0.4893,0.4817,0.4803,0.4789,0.4737,0.4709,0.4651,0.4618,0.4582,0.4529,0.4503,0.4465,0.4428,0.4418,0.4395,0.4366,0.4366,0.4358,0.4317,0.4371,0.4456,0.4462,0.4353,0.4352,0.4352,0,0.5045,0.4981,0.4959,0.4933,0.4845,0.4837,0.4799,0.474,0.4714,0.4668,0.465,0.4602,0.4576,0.4539,0.4475,0.4453,0.4444,0.4401,0.4415,0.4417,0.4416,0.4417,0.4498,0.4404,0.4404,0.4404,0.4404,0,0.5104,0.5093,0.4996,0.4983,0.4968,0.4896,0.4883,0.4839,0.4787,0.4763,0.4697,0.4676,0.4592,0.4561,0.4511,0.4487,0.4475,0.4447,0.4434,0.4453,0.4456,0.4436,0.4432,0.4405,0.4405,0.4405,0.4404,0,0.5198,0.5133,0.5104,0.5023,0.5002,0.4995,0.4925,0.4909,0.4859,0.483,0.4818,0.4741,0.47,0.4633,0.4573,0.4539,0.4524,0.4502,0.4543,0.4535,0.4553,0.4551,0.4623,0.4628,0.4533,0.4534,0.4534,0,0.524,0.523,0.5147,0.5127,0.5092,0.5059,0.5031,0.4959,0.4933,0.4866,0.4857,0.4812,0.4772,0.471,0.4648,0.4601,0.4577,0.4605,0.4569,0.4588,0.4576,0.4577,0.4575,0.4613,0.4615,0.4616,0.4617,0,0.532,0.5288,0.5251,0.5202,0.5171,0.5129,0.5084,0.507,0.4987,0.4961,0.4919,0.4888,0.4826,0.4781,0.4726,0.4686,0.4637,0.4628,0.4629,0.4648,0.4672,0.4658,0.4564,0.4627,0.4626,0.4625,0.4625,0.4624,0.5388,0.5375,0.5315,0.5275,0.5233,0.5192,0.5172,0.512,0.5084,0.5028,0.4988,0.4948,0.4889,0.481,0.4773,0.474,0.4718,0.472,0.472,0.4721,0.4727,0.4678,0.473,0.473,0.4729,0.4729,0.4729,0,0.5464,0.5421,0.5385,0.5324,0.5292,0.5249,0.5197,0.5173,0.5139,0.5088,0.505,0.5001,0.4957,0.4891,0.4841,0.4828,0.4804,0.4817,0.4817,0.4808,0.4751,0.4754,0.4837,0.4837,0.4837,0.4837,0.4837,0.4837,0.5499,0.5474,0.5435,0.5389,0.5346,0.5307,0.528,0.5242,0.5201,0.5149,0.5112,0.5069,0.5012,0.4958,0.4915,0.4896,0.4881,0.4901,0.4876,0.4823,0.4813,0.4803,0.4806,0.4898,0.4899,0.4936,0.4936,0.4936]}]]